Location: Sternwarte auf dem Internationalen Platz Vogelsang IP
(50.5721°N, 6.4398°E)
Time: 11:19:58
(UTC+01:00)

ACS3 Solar Sail - Pass Details

Date: 23 November 2025
Orbit: 888 x 1003 km, 97.3° (Epoch: 07 December)

Event Time Altitude Azimuth Distance (km) Brightness Sun altitude
Rises 05:36:11 0° 5° (N) 3,586 4.8 -22.6°
Reaches altitude 10° 05:39:05 10° 351° (N) 2,659 3.9 -22.1°
Enters shadow 05:40:54 17° 336° (NNW) 2,207 3.4 -21.8°
